CW9244 Weather Reports


Display with metric or nautical units.
time (UTC)temp
F
wind
direction
speed
MPH
gust
MPH
rain 1hr
in
rain 24hr
in
rain mn
in
humidity
%
barometer
mb
20260504050611 42 292 0.0 0.0 0.00 0.00 0.00 69 1028.1
20260504045615 42 292 0.0 0.0 0.00 0.00 0.00 69 1028.1
20260504044612 42 292 0.0 0.0 0.00 0.00 0.00 68 1028.1
20260504042612 42 292 0.0 0.0 0.00 0.00 0.00 65 1028.1
20260504041612 42 292 0.0 0.0 0.00 0.00 0.00 65 1028.1
20260504040612 43 292 0.0 0.0 0.00 0.00 0.00 65 1028.1
20260504035615 43 292 0.0 0.0 0.00 0.00 0.00 63 1028.1
20260504034617 43 292 0.0 0.0 0.00 0.00 0.00 63 1028.1
20260504033715 43 292 0.0 0.0 0.00 0.00 0.00 62 1028.0
20260504031719 43 292 0.0 0.0 0.00 0.00 0.00 62 1028.0
20260504030716 43 292 0.0 0.0 0.00 0.00 0.00 61 1027.9
20260504025719 43 292 0.0 0.0 0.00 0.00 0.00 64 1027.9
20260504024715 44 292 0.0 0.0 0.00 0.00 0.00 63 1028.0
20260504023718 44 292 0.0 0.0 0.00 0.00 0.00 60 1028.0
20260504021717 45 292 0.0 0.0 0.00 0.00 0.00 57 1027.9
20260504020815 45 292 0.0 0.0 0.00 0.00 0.00 55 1027.9
20260504015818 46 292 0.0 0.0 0.00 0.00 0.00 54 1027.9
20260504014817 46 292 0.0 0.0 0.00 0.00 0.00 52 1028.0
20260504011916 48 292 0.0 0.0 0.00 0.00 0.00 48 1027.7
20260504011016 48 292 0.0 0.0 0.00 0.00 0.00 47 1027.7
20260504010017 49 292 0.0 0.0 0.00 0.00 0.00 48 1027.6
20260504005116 50 292 0.0 0.0 0.00 0.00 0.00 46 1027.4
20260504004116 51 292 0.0 0.0 0.00 0.00 0.00 44 1027.3
20260504003116 51 292 0.0 0.0 0.00 0.00 0.00 42 1027.2
20260504002215 51 292 0.0 0.0 0.00 0.00 0.00 39 1027.0
20260504001219 52 292 0.0 0.0 0.00 0.00 0.00 38 1027.0
20260504000317 52 292 0.0 0.0 0.00 0.00 0.00 38 1026.8
20260503235317 53 292 0.0 0.0 0.00 0.00 0.00 37 1026.8
20260503234317 54 292 0.0 0.0 0.00 0.00 0.00 36 1026.7
20260503233317 55 292 0.0 0.0 0.00 0.00 0.00 34 1026.5
20260503232317 56 292 0.0 1.0 0.00 0.00 0.00 32 1026.4
20260503231317 56 312 2.0 3.0 0.00 0.00 0.00 31 1026.3
20260503225419 57 304 1.0 4.0 0.00 0.00 0.00 33 1026.1
20260503224417 57 315 2.0 6.0 0.00 0.00 0.00 33 1026.1
20260503223515 57 292 2.0 5.0 0.00 0.00 0.00 33 1026.0
20260503222516 56 298 3.0 5.0 0.00 0.00 0.00 33 1026.1
20260503221518 57 298 4.0 8.0 0.00 0.00 0.00 34 1026.1
20260503220516 57 291 2.0 5.0 0.00 0.00 0.00 34 1026.0
20260503215517 57 297 3.0 5.0 0.00 0.00 0.00 35 1026.0
20260503213515 56 304 3.0 7.0 0.00 0.00 0.00 34 1025.9
20260503211516 56 254 2.0 4.0 0.00 0.00 0.00 35 1025.8
20260503210517 56 317 4.0 6.0 0.00 0.00 0.00 35 1025.7
20260503205518 56 301 6.0 8.0 0.00 0.00 0.00 36 1025.8
20260503204518 55 290 2.0 6.0 0.00 0.00 0.00 37 1025.7
20260503203516 55 307 4.0 7.0 0.00 0.00 0.00 40 1025.8
20260503202517 55 322 2.0 4.0 0.00 0.00 0.00 39 1026.0
20260503200616 55 312 2.0 4.0 0.00 0.00 0.00 37 1025.9
20260503195715 56 324 5.0 10.0 0.00 0.00 0.00 37 1025.9
20260503194716 56 298 4.0 7.0 0.00 0.00 0.00 37 1026.0
20260503193717 55 303 3.0 5.0 0.00 0.00 0.00 36 1026.0
20260503192717 54 296 5.0 8.0 0.00 0.00 0.00 37 1026.3
20260503191716 55 289 5.0 10.0 0.00 0.00 0.00 38 1026.4
20260503190717 55 299 4.0 6.0 0.00 0.00 0.00 37 1026.1
20260503185815 55 289 7.0 14.0 0.00 0.00 0.00 37 1026.3
20260503184818 55 287 3.0 6.0 0.00 0.00 0.00 37 1026.3
20260503183817 54 283 5.0 7.0 0.00 0.00 0.00 38 1026.1
20260503182815 54 301 9.0 14.0 0.00 0.00 0.00 38 1026.0
20260503181816 56 297 4.0 7.0 0.00 0.00 0.00 37 1026.1
20260503180816 55 333 6.0 10.0 0.00 0.00 0.00 37 1025.9
20260503175817 54 281 4.0 6.0 0.00 0.00 0.00 39 1026.0
20260503174916 54 303 4.0 7.0 0.00 0.00 0.00 39 1026.1
20260503173917 54 290 3.0 5.0 0.00 0.00 0.00 40 1026.3
20260503172917 52 297 2.0 5.0 0.00 0.00 0.00 40 1026.3
20260503171017 53 308 5.0 8.0 0.00 0.00 0.00 44 1026.5
20260503160217 49 310 2.0 4.0 0.00 0.00 0.00 49 1026.8
20260503150316 51 297 5.0 7.0 0.00 0.00 0.00 47 1026.6
20260503130517 46 291 4.0 6.0 0.00 0.00 0.00 58 1026.6
20260503100116 43 323 3.0 7.0 0.00 0.00 0.00 61 1025.4
20260503090314 44 310 3.0 6.0 0.00 0.00 0.00 58 1025.4
20260503081317 45 296 3.0 4.0 0.00 0.00 0.00 54 1025.8
20260503080416 45 325 5.0 10.0 0.00 0.00 0.00 55 1025.6
20260503072516 46 344 2.0 6.0 0.00 0.00 0.00 55 1025.5
20260503071518 46 335 2.0 3.0 0.00 0.00 0.00 54 1025.7
20260503070615 47 326 2.0 4.0 0.00 0.00 0.00 54 1025.7